SCP
0 0 0 0 0 0 0 0 0 0 0 0 0 0 0 0 0 0 0 0 0 0 0 0 0 0 0 0 0 0 0 0 0 0 0 0 0 0 0 0 0 0 0 0
0 0 0 0 0 0 0 0 0 0 0 0 0 0 0 0 0 0 0 0 0 0 0 0 0 0 0 0 0 0 0 0 0 0 0 0 0 0 0 0 0 0 0 0
0 0 0 0 0 0 0 0 0 0 0 0 0 0 0 0 0 0 0 0 0 0 0 0 0 0 0 0 0 0 0 0 0 0 0 0 0 0 0 0 0 0 0 0
0 0 0 0 0 0 0 0 0 0 0 0 0 0 0 0 0 0 0 0 0 0 0 0 0 0 0 0 0 0 0 0 0 0 0 0 0 0 0 0 0 0 0 0
0 0 0 0 0 0 0 0 0 0 0 0 0 0 0 0 0 0 0 0 0 0 0 0 0 0 0 0 0 0 0 0 0 0 0 0 0 0 0 0 0 0 0 0
0 0 0 0 0 0 0 0 0 0 0 0 0 0 0 0 0 0 0 0 0 0 0 0 0 0 0 0 0 0 0 0 0 0 0 0 0 0 0 0 0 0 0 0
0 0 0 0 0 0 0 0 0 0 0 0 0 0 0 0 0 0 0 0 0 0 0 0 0 0 0 0 0 0 0 0 0 0 0 0 0 0 0 0 0 0 0 0
0 0 0 0 0 0 0 0 0 0 0 0 0 0 0 0 0 0 0 0 -0 0 0 0 0 0 0 0 0 0 0 0 0 0 0 0 0 0 0 0 0 0 0 0
0 0 0 0 0 0 0 0 0 0 0 0 0 0 0 0 0 0 0 0 0 0 0 0 0 0 0 0 0 0 0 0 0 0 0 0 0 0 0 0 0 0 0 0
0 0 0 0 0 0 0 0 0 0 0 0 0 0 0 0 0 0 0 0 0 0 0 0 -0 0 0 0 0 0 0 0 0 0 0 0 0 0 0 0 0 0 0 0
0 0 0 0 0 0 0 0 0 0 0 0 0 0 0 0 -0 -0 0 0 0 0 0 0 -0 0 0 0 -0 -0 0 0 0 0 0 0 0 0 0 0 0 0 0 0
0 0 0 0 0 0 0 0 0 0 0 0 0 0 0 0 0 -0 -0 -0 -0 0 0 0 0 0 0 -0 0 0 0 0 0 0 0 0 0 0 0 0 0 0 0 0
0 0 0 0 0 0 0 0 0 0 0 0 0 0 0 0 0 -0 0 -0 -0 -0 0 0 0 0 0 -0 -0 0 0 0 0 0 0 0 0 0 0 0 0 0 0 0
0 0 0 0 0 0 0 0 0 0 0 0 0 0 0 0 -0 0 -0 -0 -0 0 0 0 0 0 -0 -0 -0 0 0 0 0 0 0 0 0 0 0 0 0 0 0 0
0 0 0 0 0 0 0 0 0 0 0 0 0 0 0 -0 -0 -0 0 0 0 0 0 0 0 0 0 0 0 0 0 0 0 0 0 0 0 0 0 0 0 0 0 0
0 0 0 0 0 0 0 0 0 0 0 0 0 -0 0 0 -0 0 0 0 0 0 0 0 0 0 0 0 0 0 0 0 0 0 0 0 0 0 0 0 0 0 0 0
0 0 0 0 0 0 0 0 0 0 0 0 0 0 0 0 0 0 0 0 0 0 0 0 0 0 -0 0 0 0 0 0 0 0 0 0 0 0 0 0 0 0 0 0
0 0 0 0 0 0 0 0 0 0 0 -0 0 0 0 0 0 0 0 0 0 0 0 0 0 -0 -0 0 0 0 0 0 0 0 0 0 0 0 0 0 0 0 0 0
0 0 0 0 0 0 0 0 0 0 0 0 0 0 0 0 0 0 0 0 0 0 0 0 0 -0 -0 0 0 0 0 0 0 0 0 0 0 0 0 0 0 0 0 0
0 0 0 0 0 0 0 0 0 0 0 0 0 0 0 0 0 0 0 0 0 0 0 0 0 -0 0 0 0 0 0 0 0 0 0 0 0 0 0 0 0 0 0 0
0 0 0 0 0 0 0 0 0 0 0 0 0 0 0 0 0 0 0 0 0 0 0 0 -0 -0 0 0 0 0 0 0 0 0 0 0 0 0 0 0 0 0 0 0
0 0 0 0 0 0 0 0 0 0 0 0 0 0 0 0 0 0 0 0 0 0 0 0 0 0 0 0 0 0 0 0 0 0 0 0 0 0 0 0 0 0 0 0
0 0 0 0 0 0 0 0 0 0 0 0 0 0 0 0 0 0 0 0 0 0 0 0 0 0 0 0 0 0 0 0 0 0 0 0 0 0 0 0 0 0 0 0
0 0 0 0 0 0 0 0 0 0 0 0 0 0 -0 0 0 0 0 0 0 0 0 0 0 0 0 0 0 0 0 0 0 0 0 0 0 0 0 0 0 0 0 0
0 0 0 0 0 0 0 0 0 0 0 0 0 0 0 0 0 0 0 0 0 0 0 0 0 0 0 0 0 0 0 0 0 0 0 0 0 0 0 0 0 0 0 0
0 0 0 0 0 0 0 0 0 0 0 0 0 0 0 0 0 0 0 0 0 0 0 0 0 0 0 0 0 0 0 0 0 0 0 0 0 0 0 0 0 0 0 0
Wind_Speed_500mb
6 10 14 8 9 19 17 24 32 33 32 18 32 40 39 46 48 44 46 39 33 29 21 18 24 29 31 31 31 35 35 38 41 42 44 46 49 53 53 46 45 44 40 39
7 15 8 3 3 11 16 24 28 23 11 6 28 46 49 46 35 22 15 9 4 9 7 16 18 20 22 24 29 29 31 35 38 40 44 49 53 51 46 41 37 36 39 40
14 6 2 7 10 13 17 20 24 27 29 30 25 30 12 6 9 11 11 13 12 10 9 9 10 11 16 17 21 27 31 34 37 43 47 47 44 38 31 28 32 35 39 41
10 8 3 7 11 8 13 8 10 16 15 11 10 17 26 12 10 6 11 12 11 10 8 2 5 11 15 19 26 30 33 36 40 42 41 38 36 33 29 35 34 36 37 38
7 6 6 5 5 3 5 10 13 13 14 19 11 10 9 6 13 14 14 13 10 6 4 7 12 19 23 26 29 32 36 38 39 39 36 33 32 31 33 32 33 32 33 35
6 2 3 2 2 5 10 12 18 7 7 10 2 9 7 9 5 14 14 12 9 10 13 14 19 23 24 27 27 29 30 32 33 31 30 31 31 32 32 31 32 30 30 30
7 7 5 3 9 6 4 8 5 7 7 5 4 9 13 6 5 8 9 15 20 16 15 15 17 18 19 20 21 25 27 27 26 27 27 29 29 28 30 28 29 32 32 29
9 9 10 2 3 3 2 3 7 11 7 10 7 10 3 4 2 9 11 18 19 19 16 17 19 18 19 22 22 24 24 22 26 25 26 25 27 27 27 27 30 33 34 31
8 4 8 9 5 2 6 7 5 8 3 6 8 8 8 8 10 7 19 22 24 22 22 23 21 19 19 19 20 22 21 24 22 24 27 27 29 27 28 26 30 28 30 31
4 3 2 5 4 2 7 4 4 7 7 8 8 10 8 13 6 21 17 26 27 24 22 20 19 17 18 18 18 18 20 22 22 24 25 26 26 25 26 26 26 25 29 28
9 2 7 3 11 10 7 7 8 4 6 7 8 3 4 19 7 15 18 25 29 30 28 23 20 20 19 17 16 16 19 19 20 23 25 22 20 22 23 25 26 27 29 29
6 3 9 6 4 2 6 5 10 7 8 4 6 8 4 7 3 14 26 34 38 32 29 27 22 21 20 17 15 16 15 18 21 24 21 19 19 20 23 24 27 29 27 28
8 9 6 7 3 5 9 11 8 2 1 15 7 3 2 5 17 22 33 44 46 33 25 24 23 21 18 15 14 13 14 18 21 19 18 19 20 21 21 21 24 27 26 25
4 8 13 6 6 4 8 14 18 15 9 9 20 20 7 23 26 38 44 50 48 34 23 21 22 20 16 14 13 12 14 16 17 14 15 17 18 19 19 18 19 22 24 22
6 10 5 15 20 18 24 22 23 29 25 15 6 9 16 24 19 24 38 41 43 42 33 25 22 21 17 15 14 14 14 14 13 12 13 13 16 18 15 12 13 16 19 17
8 3 3 8 3 5 11 20 26 29 31 29 29 39 3 19 24 25 32 33 38 44 43 35 28 24 20 18 16 16 15 13 11 10 10 12 12 13 11 9 8 11 14 16
11 6 3 5 3 14 14 13 19 8 3 17 21 8 11 17 23 29 30 31 35 48 49 43 35 29 26 22 20 17 16 14 10 7 7 8 8 7 8 7 10 12 13 16
11 7 4 7 3 9 4 2 2 8 9 17 9 9 15 26 46 51 21 18 44 56 53 50 41 32 29 28 26 23 20 17 15 12 10 8 7 7 8 9 9 10 12 15
9 9 5 6 8 10 6 8 9 9 5 14 10 11 26 34 41 6 8 30 63 61 51 48 43 38 34 31 30 32 30 27 25 20 17 16 16 15 14 12 12 10 10 11
9 6 10 6 7 7 6 6 8 4 9 8 6 13 23 30 13 1 21 65 61 50 46 47 42 39 36 32 36 39 40 41 38 32 30 29 28 28 26 24 22 21 19 16
10 9 23 17 9 8 6 11 14 5 4 5 10 21 24 15 21 50 63 58 52 50 48 45 43 41 36 32 39 47 47 52 43 42 42 40 37 34 33 31 29 27 26 24
16 17 10 11 11 15 18 13 7 3 11 17 20 24 30 36 43 48 51 52 51 51 48 44 48 44 39 40 41 47 56 50 51 52 54 50 45 43 41 39 36 35 33 31
10 7 5 12 3 7 26 3 4 12 12 16 25 27 28 34 36 40 43 43 46 47 49 49 50 51 44 39 42 50 48 52 56 57 60 59 55 52 49 47 43 42 39 37
11 10 5 3 8 7 10 12 6 10 15 17 19 24 25 30 34 39 39 44 49 52 55 55 54 51 47 40 41 46 45 49 56 61 62 64 66 61 58 55 52 50 46 42
4 18 14 6 7 18 16 6 4 13 16 17 19 22 23 27 31 36 43 45 48 53 54 52 51 51 49 45 43 43 46 45 53 57 61 68 69 68 67 63 59 56 51 48
18 11 10 4 21 4 16 6 4 12 15 18 21 21 21 25 31 37 40 43 49 53 51 51 48 48 48 48 44 42 42 41 46 54 56 60 70 71 72 69 66 61 57 52
Wind_Direction_500mb
188 232 222 277 271 295 293 285 285 285 292 289 273 283 286 281 277 269 264 259 254 246 228 196 231 221 227 236 245 250 260 270 278 285 292 295 301 304 304 298 295 295 293 290
199 239 72 49 283 274 272 277 282 295 33 298 290 291 283 279 282 300 303 293 254 183 204 193 201 211 223 236 246 259 267 274 282 289 294 301 303 302 300 300 301 300 295 290
256 62 83 292 276 270 269 269 290 298 317 274 291 280 252 147 122 92 90 94 99 128 151 170 192 211 231 242 252 260 267 278 289 296 301 301 299 303 305 301 291 293 292 293
258 81 249 257 273 288 287 19 305 297 321 304 1 292 288 299 97 111 117 103 84 77 86 161 241 256 256 251 261 271 278 287 293 295 297 296 297 297 291 290 292 293 293 292
82 189 237 275 283 275 299 318 292 301 283 323 253 245 283 131 87 88 79 82 75 47 1 295 275 266 263 268 272 278 286 290 293 295 295 298 298 295 293 295 296 296 295 290
277 100 275 281 222 251 301 293 270 296 274 250 108 247 329 21 42 78 70 61 35 342 321 304 287 281 276 279 281 283 289 294 293 297 300 301 295 294 293 294 293 294 292 295
166 189 130 263 233 171 31 317 277 226 197 288 149 227 317 60 50 6 346 352 342 327 312 303 285 274 277 280 282 288 291 288 293 291 293 290 289 291 294 296 296 292 295 309
225 218 192 79 52 47 315 285 284 286 293 333 147 245 128 72 342 297 308 322 330 335 321 308 289 283 275 274 282 286 285 292 287 293 292 293 295 294 292 294 291 297 314 314
194 189 121 72 61 9 130 214 55 286 155 259 230 224 110 112 50 338 349 345 346 336 326 309 307 290 275 289 289 286 293 287 292 295 296 296 291 292 292 292 295 309 308 309
135 250 88 99 75 235 246 358 215 186 270 255 221 249 185 147 32 351 350 350 340 333 319 305 299 293 294 293 288 290 292 294 299 301 298 294 292 294 295 297 301 303 299 301
135 56 112 138 200 186 175 208 221 305 256 284 306 107 291 137 89 332 326 330 323 320 321 315 312 309 303 296 295 301 298 305 309 307 305 303 300 296 302 300 300 300 302 304
93 209 240 234 116 287 285 284 217 243 168 245 318 276 33 98 327 305 315 325 324 307 310 326 322 315 309 305 313 310 312 315 317 316 313 311 304 304 302 302 301 300 302 307
154 215 246 198 162 191 229 207 220 55 306 232 254 231 91 242 332 360 338 337 337 329 313 322 329 326 316 314 313 310 315 319 325 324 317 316 313 311 305 302 300 304 305 307
171 246 260 272 42 62 206 213 215 212 237 253 234 283 227 340 347 340 336 349 347 346 335 334 333 327 323 315 309 308 316 314 323 321 320 329 328 325 316 307 309 315 318 325
230 254 265 277 276 266 260 254 218 219 234 245 284 262 324 321 328 311 325 340 345 359 360 343 329 323 319 312 309 307 311 306 311 319 327 338 338 334 335 340 339 337 340 351
188 242 324 275 286 270 256 246 237 237 239 250 266 285 289 312 316 308 327 333 338 351 357 350 334 319 311 305 302 302 304 301 302 309 317 321 329 332 344 359 6 13 21 29
184 233 283 278 36 308 258 225 208 223 282 239 243 286 337 318 314 309 317 313 329 346 347 345 333 323 311 297 287 286 285 287 289 299 317 324 317 320 341 9 28 23 14 18
179 195 207 287 302 242 68 30 359 247 269 216 275 279 306 301 298 295 276 277 335 336 336 338 331 316 303 293 284 273 268 267 267 267 275 283 289 290 306 319 331 345 347 350
198 189 224 258 255 322 165 194 172 191 243 185 219 278 301 312 313 314 185 330 330 326 326 327 329 318 295 285 277 270 262 257 255 256 261 266 271 276 284 293 298 305 317 324
180 228 214 168 251 266 78 138 166 137 260 139 208 280 308 329 317 21 315 316 320 321 321 321 319 321 315 288 274 267 264 259 258 258 262 264 266 270 276 281 282 287 293 295
170 191 216 222 260 279 118 133 148 192 71 286 267 285 298 290 285 295 308 318 325 324 322 320 316 315 313 305 278 272 268 263 266 261 262 263 265 269 271 273 275 279 285 290
179 174 188 197 225 257 140 139 219 42 303 307 313 309 302 297 300 307 315 319 324 325 326 321 315 311 310 306 296 282 272 275 269 262 261 262 264 265 266 268 270 273 277 280
215 233 194 212 195 92 163 68 226 332 312 322 318 316 310 306 309 312 314 320 322 326 326 324 319 314 310 303 300 290 290 278 270 265 261 261 263 264 264 265 265 267 270 274
217 205 243 212 160 175 176 158 327 343 326 322 322 321 321 314 317 317 319 321 324 327 329 327 326 323 318 311 301 300 294 281 274 264 260 259 258 261 264 264 265 266 268 271
48 164 198 238 134 109 146 124 358 347 341 335 334 336 332 327 328 327 329 331 331 334 335 335 334 330 327 322 312 305 301 289 277 272 263 258 258 258 260 263 265 267 268 270
189 187 194 209 143 92 133 171 323 350 348 348 346 352 350 341 338 338 338 340 340 340 343 342 339 334 333 332 328 315 308 296 283 277 274 265 262 261 261 262 265 265 269 269
Wind_Speed_850mb
6 10 14 8 9 19 17 24 32 33 32 18 32 40 39 46 48 44 46 39 33 29 21 18 24 29 31 31 31 35 35 38 41 42 44 46 49 53 53 46 45 44 40 39
7 15 8 3 3 11 16 24 28 23 11 6 28 46 49 46 35 22 15 9 4 9 7 16 18 20 22 24 29 29 31 35 38 40 44 49 53 51 46 41 37 36 39 40
14 6 2 7 10 13 17 20 24 27 29 30 25 30 12 6 9 11 11 13 12 10 9 9 10 11 16 17 21 27 31 34 37 43 47 47 44 38 31 28 32 35 39 41
10 8 3 7 11 8 13 8 10 16 15 11 10 17 26 12 10 6 11 12 11 10 8 2 5 11 15 19 26 30 33 36 40 42 41 38 36 33 29 35 34 36 37 38
7 6 6 5 5 3 5 10 13 13 14 19 11 10 9 6 13 14 14 13 10 6 4 7 12 19 23 26 29 32 36 38 39 39 36 33 32 31 33 32 33 32 33 35
6 2 3 2 2 5 10 12 18 7 7 10 2 9 7 9 5 14 14 12 9 10 13 14 19 23 24 27 27 29 30 32 33 31 30 31 31 32 32 31 32 30 30 30
7 7 5 3 9 6 4 8 5 7 7 5 4 9 13 6 5 8 9 15 20 16 15 15 17 18 19 20 21 25 27 27 26 27 27 29 29 28 30 28 29 32 32 29
9 9 10 2 3 3 2 3 7 11 7 10 7 10 3 4 2 9 11 18 19 19 16 17 19 18 19 22 22 24 24 22 26 25 26 25 27 27 27 27 30 33 34 31
8 4 8 9 5 2 6 7 5 8 3 6 8 8 8 8 10 7 19 22 24 22 22 23 21 19 19 19 20 22 21 24 22 24 27 27 29 27 28 26 30 28 30 31
4 3 2 5 4 2 7 4 4 7 7 8 8 10 8 13 6 21 17 26 27 24 22 20 19 17 18 18 18 18 20 22 22 24 25 26 26 25 26 26 26 25 29 28
9 2 7 3 11 10 7 7 8 4 6 7 8 3 4 19 7 15 18 25 29 30 28 23 20 20 19 17 16 16 19 19 20 23 25 22 20 22 23 25 26 27 29 29
6 3 9 6 4 2 6 5 10 7 8 4 6 8 4 7 3 14 26 34 38 32 29 27 22 21 20 17 15 16 15 18 21 24 21 19 19 20 23 24 27 29 27 28
8 9 6 7 3 5 9 11 8 2 1 15 7 3 2 5 17 22 33 44 46 33 25 24 23 21 18 15 14 13 14 18 21 19 18 19 20 21 21 21 24 27 26 25
4 8 13 6 6 4 8 14 18 15 9 9 20 20 7 23 26 38 44 50 48 34 23 21 22 20 16 14 13 12 14 16 17 14 15 17 18 19 19 18 19 22 24 22
6 10 5 15 20 18 24 22 23 29 25 15 6 9 16 24 19 24 38 41 43 42 33 25 22 21 17 15 14 14 14 14 13 12 13 13 16 18 15 12 13 16 19 17
8 3 3 8 3 5 11 20 26 29 31 29 29 39 3 19 24 25 32 33 38 44 43 35 28 24 20 18 16 16 15 13 11 10 10 12 12 13 11 9 8 11 14 16
11 6 3 5 3 14 14 13 19 8 3 17 21 8 11 17 23 29 30 31 35 48 49 43 35 29 26 22 20 17 16 14 10 7 7 8 8 7 8 7 10 12 13 16
11 7 4 7 3 9 4 2 2 8 9 17 9 9 15 26 46 51 21 18 44 56 53 50 41 32 29 28 26 23 20 17 15 12 10 8 7 7 8 9 9 10 12 15
9 9 5 6 8 10 6 8 9 9 5 14 10 11 26 34 41 6 8 30 63 61 51 48 43 38 34 31 30 32 30 27 25 20 17 16 16 15 14 12 12 10 10 11
9 6 10 6 7 7 6 6 8 4 9 8 6 13 23 30 13 1 21 65 61 50 46 47 42 39 36 32 36 39 40 41 38 32 30 29 28 28 26 24 22 21 19 16
10 9 23 17 9 8 6 11 14 5 4 5 10 21 24 15 21 50 63 58 52 50 48 45 43 41 36 32 39 47 47 52 43 42 42 40 37 34 33 31 29 27 26 24
16 17 10 11 11 15 18 13 7 3 11 17 20 24 30 36 43 48 51 52 51 51 48 44 48 44 39 40 41 47 56 50 51 52 54 50 45 43 41 39 36 35 33 31
10 7 5 12 3 7 26 3 4 12 12 16 25 27 28 34 36 40 43 43 46 47 49 49 50 51 44 39 42 50 48 52 56 57 60 59 55 52 49 47 43 42 39 37
11 10 5 3 8 7 10 12 6 10 15 17 19 24 25 30 34 39 39 44 49 52 55 55 54 51 47 40 41 46 45 49 56 61 62 64 66 61 58 55 52 50 46 42
4 18 14 6 7 18 16 6 4 13 16 17 19 22 23 27 31 36 43 45 48 53 54 52 51 51 49 45 43 43 46 45 53 57 61 68 69 68 67 63 59 56 51 48
18 11 10 4 21 4 16 6 4 12 15 18 21 21 21 25 31 37 40 43 49 53 51 51 48 48 48 48 44 42 42 41 46 54 56 60 70 71 72 69 66 61 57 52
Wind_Direction_850mb
188 232 222 277 271 295 293 285 285 285 292 289 273 283 286 281 277 269 264 259 254 246 228 196 231 221 227 236 245 250 260 270 278 285 292 295 301 304 304 298 295 295 293 290
199 239 72 49 283 274 272 277 282 295 33 298 290 291 283 279 282 300 303 293 254 183 204 193 201 211 223 236 246 259 267 274 282 289 294 301 303 302 300 300 301 300 295 290
256 62 83 292 276 270 269 269 290 298 317 274 291 280 252 147 122 92 90 94 99 128 151 170 192 211 231 242 252 260 267 278 289 296 301 301 299 303 305 301 291 293 292 293
258 81 249 257 273 288 287 19 305 297 321 304 1 292 288 299 97 111 117 103 84 77 86 161 241 256 256 251 261 271 278 287 293 295 297 296 297 297 291 290 292 293 293 292
82 189 237 275 283 275 299 318 292 301 283 323 253 245 283 131 87 88 79 82 75 47 1 295 275 266 263 268 272 278 286 290 293 295 295 298 298 295 293 295 296 296 295 290
277 100 275 281 222 251 301 293 270 296 274 250 108 247 329 21 42 78 70 61 35 342 321 304 287 281 276 279 281 283 289 294 293 297 300 301 295 294 293 294 293 294 292 295
166 189 130 263 233 171 31 317 277 226 197 288 149 227 317 60 50 6 346 352 342 327 312 303 285 274 277 280 282 288 291 288 293 291 293 290 289 291 294 296 296 292 295 309
225 218 192 79 52 47 315 285 284 286 293 333 147 245 128 72 342 297 308 322 330 335 321 308 289 283 275 274 282 286 285 292 287 293 292 293 295 294 292 294 291 297 314 314
194 189 121 72 61 9 130 214 55 286 155 259 230 224 110 112 50 338 349 345 346 336 326 309 307 290 275 289 289 286 293 287 292 295 296 296 291 292 292 292 295 309 308 309
135 250 88 99 75 235 246 358 215 186 270 255 221 249 185 147 32 351 350 350 340 333 319 305 299 293 294 293 288 290 292 294 299 301 298 294 292 294 295 297 301 303 299 301
135 56 112 138 200 186 175 208 221 305 256 284 306 107 291 137 89 332 326 330 323 320 321 315 312 309 303 296 295 301 298 305 309 307 305 303 300 296 302 300 300 300 302 304
93 209 240 234 116 287 285 284 217 243 168 245 318 276 33 98 327 305 315 325 324 307 310 326 322 315 309 305 313 310 312 315 317 316 313 311 304 304 302 302 301 300 302 307
154 215 246 198 162 191 229 207 220 55 306 232 254 231 91 242 332 360 338 337 337 329 313 322 329 326 316 314 313 310 315 319 325 324 317 316 313 311 305 302 300 304 305 307
171 246 260 272 42 62 206 213 215 212 237 253 234 283 227 340 347 340 336 349 347 346 335 334 333 327 323 315 309 308 316 314 323 321 320 329 328 325 316 307 309 315 318 325
230 254 265 277 276 266 260 254 218 219 234 245 284 262 324 321 328 311 325 340 345 359 360 343 329 323 319 312 309 307 311 306 311 319 327 338 338 334 335 340 339 337 340 351
188 242 324 275 286 270 256 246 237 237 239 250 266 285 289 312 316 308 327 333 338 351 357 350 334 319 311 305 302 302 304 301 302 309 317 321 329 332 344 359 6 13 21 29
184 233 283 278 36 308 258 225 208 223 282 239 243 286 337 318 314 309 317 313 329 346 347 345 333 323 311 297 287 286 285 287 289 299 317 324 317 320 341 9 28 23 14 18
179 195 207 287 302 242 68 30 359 247 269 216 275 279 306 301 298 295 276 277 335 336 336 338 331 316 303 293 284 273 268 267 267 267 275 283 289 290 306 319 331 345 347 350
198 189 224 258 255 322 165 194 172 191 243 185 219 278 301 312 313 314 185 330 330 326 326 327 329 318 295 285 277 270 262 257 255 256 261 266 271 276 284 293 298 305 317 324
180 228 214 168 251 266 78 138 166 137 260 139 208 280 308 329 317 21 315 316 320 321 321 321 319 321 315 288 274 267 264 259 258 258 262 264 266 270 276 281 282 287 293 295
170 191 216 222 260 279 118 133 148 192 71 286 267 285 298 290 285 295 308 318 325 324 322 320 316 315 313 305 278 272 268 263 266 261 262 263 265 269 271 273 275 279 285 290
179 174 188 197 225 257 140 139 219 42 303 307 313 309 302 297 300 307 315 319 324 325 326 321 315 311 310 306 296 282 272 275 269 262 261 262 264 265 266 268 270 273 277 280
215 233 194 212 195 92 163 68 226 332 312 322 318 316 310 306 309 312 314 320 322 326 326 324 319 314 310 303 300 290 290 278 270 265 261 261 263 264 264 265 265 267 270 274
217 205 243 212 160 175 176 158 327 343 326 322 322 321 321 314 317 317 319 321 324 327 329 327 326 323 318 311 301 300 294 281 274 264 260 259 258 261 264 264 265 266 268 271
48 164 198 238 134 109 146 124 358 347 341 335 334 336 332 327 328 327 329 331 331 334 335 335 334 330 327 322 312 305 301 289 277 272 263 258 258 258 260 263 265 267 268 270
189 187 194 209 143 92 133 171 323 350 348 348 346 352 350 341 338 338 338 340 340 340 343 342 339 334 333 332 328 315 308 296 283 277 274 265 262 261 261 262 265 265 269 269